Location: El Conde
(10.2895°N, 67.2409°W)
Time: 07:59:19
(UTC+00:00)

Cosmos 1725 Rocket - Pass Details

Date: 19 May 2024
Orbit: 962 x 989 km, 82.9° (Epoch: 22 June)

Event Time Altitude Azimuth Distance (km) Brightness Sun altitude
Rises 23:27:19 0° 3° (N) 3,681 7.3 -10.7°
Reaches altitude 10° 23:29:52 10° 7° (N) 2,736 6.6 -11.2°
Maximum altitude 23:36:03 59° 86° (E) 1,126 4.1 -12.6°
Drops below altitude 10° 23:42:13 10° 165° (SSE) 2,742 6.0 -14.0°
Sets 23:44:47 0° 168° (SSE) 3,690 6.7 -14.6°
